Location: Pulvis Stellarum Observatory
(41.6962°N, 71.4263°W)
Time: 12:14:30
(UTC-04:00)

Cosmos 1758 - Visible Passes

Search period start: 20 September 2017 00:00
Search period end: 30 September 2017 00:00
Orbit: 540 x 565 km, 82.5° (Epoch: 19 September)

Date Brightness Start Highest point End Pass type
(mag) Time Alt. Az. Time Alt. Az. Time Alt. Az.
20 Sep 5.4 21:17:04 20° N 21:17:04 20° N 21:18:23 10° N visible
21 Sep 5.1 21:13:08 26° N 21:13:08 26° N 21:15:00 10° N visible
22 Sep 4.7 21:09:02 35° NNW 21:09:02 35° NNW 21:11:36 10° N visible
23 Sep 5.3 19:28:56 11° ENE 19:28:56 11° ENE 19:29:40 10° ENE visible
23 Sep 4.2 21:04:38 47° WNW 21:04:38 47° WNW 21:08:10 10° N visible
24 Sep 5.1 19:23:59 12° E 19:24:50 13° E 19:26:43 10° ENE visible
24 Sep 4.4 20:59:37 32° SW 21:00:54 43° WNW 21:04:45 10° N visible
25 Sep 5.0 19:19:10 10° ESE 19:21:25 15° E 19:23:39 10° NE visible
25 Sep 4.7 20:53:46 10° SSW 20:57:32 38° WNW 21:01:18 10° N visible
26 Sep 4.8 19:15:28 10° SE 19:17:59 16° E 19:20:31 10° NE visible
26 Sep 4.9 20:50:30 10° SW 20:54:11 34° WNW 20:57:51 10° N visible
27 Sep 4.7 19:11:48 10° SE 19:14:34 18° E 19:17:20 10° NE visible
27 Sep 5.2 20:47:15 10° SW 20:50:48 30° WNW 20:54:23 10° NNW visible
28 Sep 4.6 19:08:10 10° SE 19:11:09 20° E 19:14:07 10° NE visible
28 Sep 5.4 20:44:01 10° SW 20:47:27 27° WNW 20:50:55 10° NNW visible
29 Sep 4.4 19:04:34 10° SE 19:07:43 23° E 19:10:53 10° NE visible
29 Sep 5.6 20:40:48 10° SW 20:44:06 24° WNW 20:47:24 10° NNW visible
